Santa Monica, CA

12:09 AM PST on November 20, 2017 (GMT -0800)
Santa Monica Municipal

Weather History for KSMO - November, 2013

Change the Weather History Date:

Wednesday, November 27, 2013

  Actual Average Record
Temperature  
Mean Temperature 66 °F -  
Max Temperature 75 °F 69 °F 88 °F (1977)
Min Temperature 57 °F 48 °F 38 °F (1940)
Cooling Degree Days 1    
Growing Degree Days 16 (Base 50)    
Moisture  
Dew Point 38 °F    
Average Humidity 39    
Maximum Humidity 55    
Minimum Humidity 19    
Precipitation  
Precipitation 0.00 in - - ()
Sea Level Pressure  
Sea Level Pressure 29.95 in    
Wind  
Wind Speed 3 mph (NNE)    
Max Wind Speed 9 mph    
Max Gust Speed -    
Visibility 10 miles    
Events      
Averages and records for this station are not official NWS values.
T = Trace of Precipitation, MM = Missing Value Source: NWS Daily Summary

Daily Weather History Graph

Daily Weather History Graph

Search for Another Location

Airport or City:

Trip Planner

Search our weather history database for the weather conditions in past years. The results will help you decide how hot, cold, wet, or windy it might be!

Date:

Astronomy

Nov. 27, 2013 Rise Set
Actual Time 6:37 AM PST 4:45 PM PST
Civil Twilight 6:10 AM PST 5:12 PM PST
Nautical Twilight 5:39 AM PST 5:43 PM PST
Astronomical Twilight 5:09 AM PST 6:13 PM PST
Moon 12:59 AM PST (11/27) 1:11 PM PST (11/27)
Length of Visible Light 11h 01m
Length of Day
10h 07m
Waning Crescent, 30% of the Moon is Illuminated
Nov 27
Waning Crescent
Dec 2
New
Dec 9
First Quarter
Dec 17
Full
Dec 25
Last Quarter

Hourly Weather History & Observations

Time (PST) Temp. Dew Point Humidity Pressure Visibility Wind Dir Wind Speed Gust Speed Precip Events Conditions
12:51 AM 64.9 °F 36.0 °F 34% 30.03 in 10.0 mi NNE 4.6 mph - N/A   Clear
1:51 AM 64.0 °F 36.0 °F 35% 30.02 in 10.0 mi NNE 4.6 mph - N/A   Clear
2:51 AM 64.0 °F 35.1 °F 34% 30.01 in 10.0 mi NNE 3.5 mph - N/A   Clear
3:51 AM 61.0 °F 36.0 °F 39% 30.00 in 10.0 mi NNE 5.8 mph - N/A   Clear
4:51 AM 60.1 °F 36.0 °F 41% 29.99 in 10.0 mi NNE 3.5 mph - N/A   Clear
5:51 AM 59.0 °F 36.0 °F 42% 29.99 in 10.0 mi North 3.5 mph - N/A   Clear
6:51 AM 59.0 °F 36.0 °F 42% 30.00 in 10.0 mi NE 3.5 mph - N/A   Clear
7:51 AM 64.0 °F 35.1 °F 34% 29.99 in 10.0 mi NNE 4.6 mph - N/A   Clear
8:51 AM 70.0 °F 35.1 °F 28% 29.99 in 10.0 mi Variable 4.6 mph - N/A   Clear
9:51 AM 66.9 °F 37.9 °F 34% 29.99 in 10.0 mi Calm Calm - N/A   Clear
10:51 AM 72.0 °F 35.1 °F 26% 29.99 in 10.0 mi Calm Calm - N/A   Clear
11:51 AM 73.0 °F 32.0 °F 22% 29.94 in 10.0 mi Calm Calm - N/A   Clear
12:51 PM 75.9 °F 30.9 °F 19% 29.90 in 10.0 mi SSE 6.9 mph - N/A   Clear
1:51 PM 71.1 °F 39.0 °F 31% 29.89 in 10.0 mi SW 9.2 mph - N/A   Clear
2:51 PM 71.1 °F 39.9 °F 32% 29.89 in 10.0 mi SSW 8.1 mph - N/A   Clear
3:51 PM 68.0 °F 41.0 °F 37% 29.89 in 10.0 mi WSW 6.9 mph - N/A   Clear
4:51 PM 66.0 °F 42.1 °F 42% 29.88 in 10.0 mi Calm Calm - N/A   Clear
5:51 PM 64.0 °F 43.0 °F 46% 29.90 in 10.0 mi Calm Calm - N/A   Clear
6:51 PM 61.0 °F 43.0 °F 52% 29.90 in 10.0 mi Calm Calm - N/A   Clear
7:51 PM 60.1 °F 44.1 °F 55% 29.91 in 10.0 mi Calm Calm - N/A   Clear
8:51 PM 57.9 °F 39.0 °F 49% 29.93 in 10.0 mi Calm Calm - N/A   Clear
9:51 PM 57.0 °F 39.9 °F 53% 29.92 in 10.0 mi Calm Calm - N/A   Clear
10:51 PM 57.9 °F 39.9 °F 51% 29.92 in 10.0 mi Calm Calm - N/A   Clear
11:51 PM 57.9 °F 41.0 °F 53% 29.92 in 10.0 mi Calm Calm - N/A   Clear